Beaver Island, MI

1:18 PM EDT on April 30, 2017 (GMT -0400)
Beaver Island

Weather History for KSJX - November, 2012

Change the Weather History Date:

Tuesday, November 6, 2012

  Actual Average Record
Temperature  
Mean Temperature 37 °F -  
Max Temperature 41 °F 42 °F 69 °F (2008)
Min Temperature 33 °F 32 °F 16 °F (1991)
Degree Days  
Heating Degree Days 28    
Moisture  
Dew Point 29 °F    
Average Humidity 68    
Maximum Humidity 81    
Minimum Humidity 57    
Precipitation  
Precipitation 0.00 in - - ()
Sea Level Pressure  
Sea Level Pressure 30.01 in    
Wind  
Wind Speed 6 mph (SSE)    
Max Wind Speed 12 mph    
Max Gust Speed 20 mph    
Visibility 10 miles    
Events      
Averages and records for this station are not official NWS values.
T = Trace of Precipitation, MM = Missing Value Source: NWS Daily Summary

Daily Weather History Graph

Daily Weather History Graph

Search for Another Location

Airport or City:

Trip Planner

Search our weather history database for the weather conditions in past years. The results will help you decide how hot, cold, wet, or windy it might be!

Date:

Astronomy

Nov. 06, 2012 Rise Set
Actual Time 7:29 AM EST 5:21 PM EST
Civil Twilight 6:58 AM EST 5:52 PM EST
Nautical Twilight 6:22 AM EST 6:28 PM EST
Astronomical Twilight 5:48 AM EST 7:02 PM EST
Moon No Moon Rise 1:19 PM EST (11/6)
Length of Visible Light 10h 54m
Length of Day
9h 51m
Waning Gibbous, 53% of the Moon is Illuminated
Nov 6
Waning Gibbous
Nov 6
Last Quarter
Nov 13
New
Nov 20
First Quarter
Nov 28
Full

Hourly Weather History & Observations

Time (EST) Temp. Windchill Dew Point Humidity Pressure Visibility Wind Dir Wind Speed Gust Speed Precip Events Conditions
12:18 AM 33.8 °F 29.6 °F 24.8 °F 70% 30.12 in 10.0 mi ESE 4.6 mph - N/A   Overcast
12:38 AM 33.8 °F 29.6 °F 24.8 °F 70% 30.12 in 10.0 mi ESE 4.6 mph - N/A   Overcast
12:58 AM 33.8 °F 29.6 °F 24.8 °F 70% 30.11 in 10.0 mi SSE 4.6 mph - N/A   Overcast
1:18 AM 35.6 °F 31.7 °F 24.8 °F 65% 30.10 in 10.0 mi SE 4.6 mph - N/A   Overcast
2:07 AM 35.6 °F 30.7 °F 26.6 °F 70% 30.09 in 10.0 mi SE 5.8 mph - N/A   Overcast
2:44 AM 35.6 °F 31.7 °F 26.6 °F 70% 30.08 in 10.0 mi SE 4.6 mph - N/A   Overcast
2:58 AM 35.6 °F 30.7 °F 26.6 °F 70% 30.08 in 10.0 mi SE 5.8 mph - N/A   Overcast
3:27 AM 35.6 °F 29.2 °F 26.6 °F 70% 30.07 in 10.0 mi SSE 8.1 mph - N/A   Overcast
3:38 AM 35.6 °F 31.7 °F 26.6 °F 70% 30.07 in 10.0 mi SE 4.6 mph - N/A   Overcast
3:57 AM 35.6 °F 32.8 °F 26.6 °F 70% 30.06 in 10.0 mi SE 3.5 mph - N/A   Overcast
4:18 AM 35.6 °F 32.8 °F 28.4 °F 75% 30.05 in 10.0 mi SE 3.5 mph - N/A   Overcast
4:38 AM 35.6 °F 32.8 °F 28.4 °F 75% 30.05 in 10.0 mi SE 3.5 mph - N/A   Overcast
4:58 AM 35.6 °F 31.7 °F - N/A% - 10.0 mi SSE 4.6 mph - N/A   Overcast
6:18 AM 35.6 °F - 30.2 °F 81% 30.01 in 10.0 mi Calm Calm - N/A   Overcast
6:38 AM 35.6 °F 31.7 °F 30.2 °F 81% 30.01 in 10.0 mi SSE 4.6 mph - N/A   Overcast
6:58 AM 37.4 °F 34.9 °F 30.2 °F 75% 30.00 in 10.0 mi SE 3.5 mph - N/A   Overcast
7:24 AM 37.4 °F 34.9 °F 28.4 °F 70% 30.00 in 10.0 mi SSE 3.5 mph - N/A   Overcast
7:38 AM - - - N/A% - - SSE 4.6 mph - N/A   Unknown
7:58 AM 39.2 °F 35.9 °F 30.2 °F 70% 30.00 in 10.0 mi South 4.6 mph - N/A   Overcast
8:18 AM 39.2 °F 34.2 °F 28.4 °F 65% 30.01 in 10.0 mi South 6.9 mph - N/A   Overcast
8:58 AM 39.2 °F 35.0 °F 28.4 °F 65% 30.01 in 10.0 mi SSE 5.8 mph - N/A   Overcast
9:18 AM 39.2 °F 34.2 °F 28.4 °F 65% 30.01 in 10.0 mi South 6.9 mph - N/A   Overcast
9:38 AM 39.2 °F 33.6 °F 28.4 °F 65% 30.00 in 10.0 mi South 8.1 mph - N/A   Overcast
9:58 AM 39.2 °F 33.0 °F 28.4 °F 65% 30.00 in 10.0 mi SSE 9.2 mph 16.1 mph N/A   Overcast
10:22 AM 39.2 °F 32.5 °F 28.4 °F 65% 30.00 in 10.0 mi SSE 10.4 mph 16.1 mph N/A   Overcast
10:40 AM 39.2 °F 32.5 °F 28.4 °F 65% 30.00 in 10.0 mi SSE 10.4 mph 16.1 mph N/A   Overcast
11:38 AM 39.2 °F 33.6 °F 28.4 °F 65% 29.99 in 10.0 mi South 8.1 mph 19.6 mph N/A   Overcast
11:58 AM 39.2 °F 33.6 °F 28.4 °F 65% 29.99 in 10.0 mi South 8.1 mph 17.3 mph N/A   Overcast
12:18 PM 39.2 °F 33.6 °F 26.6 °F 61% 29.98 in 10.0 mi SSE 8.1 mph - N/A   Overcast
12:38 PM 41.0 °F 34.7 °F 26.6 °F 57% 29.97 in 10.0 mi SSE 10.4 mph 17.3 mph N/A   Overcast
1:04 PM - - - N/A% - - North - - N/A   Unknown
1:38 PM 41.0 °F 34.3 °F 26.6 °F 57% 29.96 in 10.0 mi SSE 11.5 mph 16.1 mph N/A   Overcast
1:58 PM 41.0 °F 36.4 °F 28.4 °F 61% 29.95 in 10.0 mi SSE 6.9 mph - N/A   Overcast
2:18 PM 41.0 °F 35.2 °F 28.4 °F 61% 29.95 in 10.0 mi South 9.2 mph - N/A   Overcast
2:38 PM 41.0 °F 36.4 °F - N/A% - 10.0 mi SSE 6.9 mph - N/A   Overcast
3:03 PM 41.0 °F 35.2 °F 28.4 °F 61% 29.94 in 10.0 mi South 9.2 mph - N/A   Overcast
4:03 PM 41.0 °F 36.4 °F 32.0 °F 70% - 10.0 mi SSE 6.9 mph - N/A   Overcast
4:18 PM 41.0 °F 38.0 °F 30.2 °F 65% 29.95 in 10.0 mi SE 4.6 mph - N/A   Overcast
4:38 PM 41.0 °F 36.4 °F 30.2 °F 65% 29.95 in 10.0 mi South 6.9 mph - N/A   Overcast
5:36 PM - - - N/A% - 0.9 mi North - - N/A   Unknown
5:38 PM 41.0 °F 38.0 °F 30.2 °F 65% 29.95 in 10.0 mi SSE 4.6 mph - N/A   Overcast
6:02 PM - - - N/A% - 0.9 mi North - - N/A   Unknown
6:20 PM 41.0 °F 35.8 °F 30.2 °F 65% 29.96 in 10.0 mi SSE 8.1 mph - N/A   Overcast
6:38 PM 41.0 °F 35.8 °F 30.2 °F 65% 29.96 in 10.0 mi SE 8.1 mph - N/A   Overcast
7:25 PM 41.0 °F 35.2 °F 30.2 °F 65% 29.97 in 10.0 mi SE 9.2 mph - N/A   Overcast
7:38 PM - - - N/A% - - North - - N/A   Unknown
7:58 PM 39.2 °F 35.0 °F 30.2 °F 70% 29.97 in 10.0 mi SE 5.8 mph - N/A   Overcast
8:38 PM - - - N/A% - 10.0 mi SSE 6.9 mph - N/A   Scattered Clouds
8:58 PM 39.2 °F 35.0 °F 30.2 °F 70% 29.98 in 10.0 mi SE 5.8 mph - N/A   Overcast
9:18 PM 39.2 °F 35.0 °F 30.2 °F 70% 29.98 in 10.0 mi SE 5.8 mph - N/A   Overcast
9:38 PM 39.2 °F 33.0 °F 30.2 °F 70% - 10.0 mi SE 9.2 mph - N/A   Overcast
10:01 PM 39.2 °F 35.0 °F 30.2 °F 70% 29.99 in 10.0 mi SE 5.8 mph - N/A   Overcast
10:23 PM 39.2 °F 34.2 °F 30.2 °F 70% 29.99 in 10.0 mi SE 6.9 mph - N/A   Overcast
10:38 PM 39.2 °F 35.9 °F 30.2 °F 70% 29.99 in 10.0 mi SE 4.6 mph - N/A   Overcast
10:58 PM 39.2 °F 35.0 °F 30.2 °F 70% 29.99 in 10.0 mi SSE 5.8 mph - N/A   Overcast
11:18 PM 39.2 °F 34.2 °F 30.2 °F 70% 29.99 in 10.0 mi SSE 6.9 mph - N/A   Overcast